Location: Angola by the Bay
(38.6709°N, 75.1746°W)
Time: 06:29:16
(UTC+00:00)

DIWATA 2B (PO-101) - Pass Details

Date: 12 December 2024
Orbit: 569 x 582 km, 98.1° (Epoch: 18 January)

Event Time Altitude Azimuth Distance (km) Brightness Sun altitude
Rises 22:46:23 0° 358° (N) 2,785 ? -12.7°
Reaches altitude 10° 22:48:49 10° 345° (NNW) 1,881 ? -13.1°
Maximum altitude 22:52:07 24° 291° (WNW) 1,194 ? -13.7°
Drops below altitude 10° 22:55:23 10° 237° (WSW) 1,866 ? -14.3°
Sets 22:57:48 0° 223° (SW) 2,758 ? -14.8°
